Volver al catálogo

AURORA 2 R/B

PAM-D

ActivoGTO
NORAD 21394·ROCKET BODY·🇺🇸 United States

Lanzado May 29, 1991 desde Cape Canaveral Space Force Station

Loading…

TLE

ObsoletoSource: Space-Track

Época: Sep 14, 2026, 08:50 UTC

1 21394U 91037C   26257.36845156 -.00000197  00000-0  00000-0 0  9997
2 21394  24.1914  13.8608 6844896 352.5453   4.5840  2.22008218286394

Sigue AURORA 2 R/B en tiempo real con AllMySat

Download on the App Store